Weather History for Port Angeles, WA

Change the Weather History Date:

Tuesday, January 7, 2014

  Actual Average Record
Temperature  
Mean Temperature 40 °F -  
Max Temperature 43 °F 43 °F 54 °F (1962)
Min Temperature 37 °F 32 °F 18 °F (1973)
Degree Days  
Heating Degree Days 25    
Moisture  
Dew Point 39 °F    
Average Humidity 94    
Maximum Humidity 100    
Minimum Humidity 89    
Precipitation  
Precipitation 0.28 in - - ()
Sea Level Pressure  
Sea Level Pressure 30.00 in    
Wind  
Wind Speed 2 mph (SW)    
Max Wind Speed 7 mph    
Max Gust Speed -    
Visibility 6 miles    
Events Fog , Rain    
Averages and records for this station are not official NWS values.
T = Trace of Precipitation, MM = Missing Value Source: NWS Daily Summary

Daily Weather History Graph

Daily Weather History Graph

Search for Another Location

Airport:

Trip Planner

Search our weather history database for the weather conditions in past years. The results will help you decide how hot, cold, wet, or windy it might be!

Date:

Astronomy

Jan. 07, 2014 Rise Set
Actual Time 8:03 AM PST 4:37 PM PST
Civil Twilight 7:27 AM PST 5:13 PM PST
Nautical Twilight 6:48 AM PST 5:52 PM PST
Astronomical Twilight 6:10 AM PST 6:30 PM PST
Moon 11:20 AM PST (1/7) No Moon Set
Length of Visible Light 9h 46m
Length of Day
8h 34m
Waxing Crescent, 46% of the Moon is Illuminated
Jan 7
Waxing Crescent
Jan 7
First Quarter
Jan 15
Full
Jan 23
Last Quarter
Jan 30
New

Hourly Weather History & Observations

Time (PST) Temp. Windchill Dew Point Humidity Pressure Visibility Wind Dir Wind Speed Gust Speed Precip Events Conditions
12:53 AM 37.0 °F 34.5 °F 34.0 °F 89% 30.10 in 10.0 mi ESE 3.5 mph - 0.00 in   Overcast
1:53 AM 37.0 °F - 35.1 °F 93% 30.10 in 10.0 mi Calm Calm - N/A   Overcast
2:53 AM 37.9 °F 33.5 °F 35.1 °F 89% 30.09 in 10.0 mi SE 5.8 mph - N/A   Overcast
3:53 AM 37.9 °F 35.5 °F 36.0 °F 93% 30.08 in 10.0 mi WSW 3.5 mph - N/A   Overcast
4:01 AM 37.9 °F 34.4 °F 35.1 °F 89% 30.07 in 10.0 mi WSW 4.6 mph - 0.00 in Rain Light Rain
4:40 AM 37.9 °F - 36.0 °F 93% 30.05 in 7.0 mi Calm Calm - 0.08 in Rain Light Rain
4:53 AM 37.9 °F - 36.0 °F 93% 30.05 in 7.0 mi Calm Calm - 0.09 in Rain Light Rain
5:53 AM 37.9 °F 35.5 °F 36.0 °F 93% 30.04 in 10.0 mi WSW 3.5 mph - 0.00 in   Overcast
6:25 AM 37.9 °F 34.4 °F 37.0 °F 97% 30.02 in 7.0 mi WSW 4.6 mph - 0.01 in Rain Light Rain
6:53 AM 37.9 °F 34.4 °F 36.0 °F 93% 30.03 in 6.0 mi WSW 4.6 mph - 0.06 in Rain Light Rain
7:10 AM 37.9 °F - 37.0 °F 97% 30.01 in 10.0 mi Calm Calm - 0.02 in Rain Light Rain
7:26 AM 37.9 °F - 37.0 °F 97% 30.00 in 9.0 mi Calm Calm - 0.02 in Rain Light Rain
7:53 AM 37.9 °F - 36.0 °F 93% 30.01 in 9.0 mi Calm Calm - 0.02 in   Overcast
8:51 AM 37.4 °F - 37.4 °F 100% 30.00 in 1.8 mi Calm Calm - 0.04 in Rain Light Rain
8:53 AM 37.9 °F - 37.0 °F 97% 30.01 in 1.5 mi Calm Calm - 0.04 in Rain Light Rain
9:00 AM 39.0 °F - 37.9 °F 96% 30.00 in 3.0 mi Calm Calm - 0.00 in Rain Light Rain
9:53 AM 39.9 °F 37.8 °F 37.9 °F 93% 30.01 in 10.0 mi WSW 3.5 mph - 0.02 in Rain Light Rain
10:53 AM 41.0 °F - 39.9 °F 96% 30.01 in 9.0 mi Calm Calm - 0.04 in Rain Light Rain
11:33 AM 42.1 °F - 39.9 °F 92% 29.97 in 10.0 mi Calm Calm - 0.00 in   Overcast
11:41 AM 43.0 °F 41.3 °F 39.9 °F 89% 29.98 in 10.0 mi West 3.5 mph - 0.00 in   Overcast
11:53 AM 43.0 °F 40.3 °F 39.9 °F 89% 29.99 in 10.0 mi WSW 4.6 mph - 0.00 in   Overcast
12:06 PM 43.0 °F 41.3 °F 39.9 °F 89% 29.97 in 10.0 mi West 3.5 mph - N/A   Overcast
12:53 PM 43.0 °F 38.8 °F 41.0 °F 93% 29.97 in 10.0 mi West 6.9 mph - N/A   Overcast
1:53 PM 43.0 °F - 42.1 °F 97% 29.96 in 7.0 mi Calm Calm - 0.01 in Rain Light Rain
2:53 PM 43.0 °F - 41.0 °F 93% 29.97 in 10.0 mi Calm Calm - 0.00 in   Overcast
3:53 PM 43.0 °F 41.3 °F 41.0 °F 93% 29.97 in 5.0 mi East 3.5 mph - N/A   Overcast
4:33 PM 43.0 °F - 42.1 °F 97% 29.96 in 2.0 mi Calm Calm - N/A   Overcast
4:44 PM 43.0 °F - 42.1 °F 97% 29.96 in 1.8 mi Calm Calm - N/A   Overcast
4:53 PM 43.0 °F - 41.0 °F 93% 29.97 in 1.2 mi Calm Calm - N/A   Overcast
5:24 PM 43.0 °F 41.3 °F 41.0 °F 93% 29.96 in 0.5 mi SE 3.5 mph - N/A Fog Fog
5:53 PM 42.1 °F 40.2 °F 41.0 °F 96% 29.97 in 1.0 mi SW 3.5 mph - N/A   Overcast
6:20 PM 43.0 °F - 41.0 °F 93% 29.96 in 3.0 mi Calm Calm - N/A   Overcast
6:53 PM 42.1 °F - 41.0 °F 96% 29.96 in 5.0 mi Calm Calm - N/A   Overcast
7:53 PM 42.1 °F - 41.0 °F 96% 29.96 in 5.0 mi Calm Calm - N/A   Overcast
8:53 PM 42.1 °F - 41.0 °F 96% 29.98 in 4.0 mi Calm Calm - N/A   Overcast
9:43 PM 42.1 °F - 41.0 °F 96% 29.98 in 2.0 mi Calm Calm - N/A   Overcast
9:53 PM 42.1 °F - 41.0 °F 96% 29.99 in 2.0 mi Calm Calm - N/A   Overcast
10:01 PM 42.1 °F - 41.0 °F 96% 29.98 in 1.2 mi Calm Calm - N/A   Overcast
10:48 PM 42.8 °F - 41.0 °F 93% 29.98 in 0.8 mi Calm Calm - 0.00 in   Overcast
10:53 PM 42.1 °F - 39.9 °F 92% 29.99 in 0.8 mi Calm Calm - 0.00 in   Overcast
11:42 PM 41.0 °F 38.0 °F 39.9 °F 96% 29.98 in 0.5 mi SW 4.6 mph - N/A Fog Fog
11:53 PM 42.1 °F 39.2 °F 39.9 °F 92% 29.99 in 0.5 mi South 4.6 mph - N/A Fog Fog